sat.trackr.live / text

‹ back to catalog

STARLINK-36515

NORAD 67430 · 2026-005AC

PAYLOAD ACTIVE UNKNOWN

§ Identity

Operator
Country
US
Launch date
2026-01-12
Launch site
AFETR
Launch vehicle
Mass (kg)
RCS (m²)

Purposes: comms

External: N2YO · Heavens-Above · Gunter

§ Orbital elements

Epoch: 2026-09-19T14:50:56.179392Z

Period
94.27 min
Inclination
43.0004°
Eccentricity
0.0001448
Mean motion
15.27590034 rev/d
Perigee alt
482.0 km
Apogee alt
484.0 km
Semi-major
6,861.2 km
B*
3.2336e-4
RAAN
222.9274°
Arg perigee
275.4686°
Mean anomaly
84.6000°
Rev number
3,834

§ Raw data

STARLINK-365151 67430U 26005AC  26262.61870578  .00008649  00000+0  32336-3 0  99992 67430  43.0004 222.9274 0001448 275.4686  84.6000 15.27590034 38348

JSON: /api/v1/satellites/67430 · /tle

For live sub-satellite position, see the globe view (requires WebGL).

§ Visibility from observer

Set your observer location to see the next 7 days of passes ≥ 10°. The values pass through the URL so the page stays shareable.

No JS? Fill the form by hand. The geolocation button needs JavaScript.